This is the latest recevied weather packets stored in our database for station/object LU5DLT-WX. If no packets are shown the sender has not sent any weather packets the latest 10 day(s).
| Time | Temp. | Humidity | Pressure | Rain* | Wind** | Luminosity | Snow |
|---|---|---|---|---|---|---|---|
| 1787414386 | 13.33° C | 26% | 1014.9 hPa | 0 mm | - | - | - |
| 1787414085 | 13.33° C | 25% | 1014.8 hPa | 0 mm | - | - | - |
| 1787413786 | 13.33° C | 27% | 1014.9 hPa | 0 mm | - | - | - |
| 1787413485 | 12.78° C | 26% | 1015 hPa | 0 mm | - | - | - |
| 1787413185 | 13.33° C | 27% | 1015.1 hPa | 0 mm | - | - | - |
| 1787412885 | 13.33° C | 27% | 1015 hPa | 0 mm | - | - | - |
| 1787412585 | 13.33° C | 27% | 1015.1 hPa | 0 mm | - | - | - |
| 1787412285 | 12.78° C | 30% | 1015.1 hPa | 0 mm | - | - | - |
| 1787411986 | 12.22° C | 28% | 1015.3 hPa | 0 mm | - | - | - |
| 1787411687 | 12.22° C | 28% | 1015.5 hPa | 0 mm | - | - | - |
| 1787411385 | 12.22° C | 28% | 1015.5 hPa | 0 mm | - | - | - |
| 1787411086 | 12.22° C | 29% | 1015.6 hPa | 0 mm | - | - | - |
| 1787410786 | 12.22° C | 32% | 1015.6 hPa | 0 mm | - | - | - |
| 1787410485 | 12.22° C | 35% | 1015.7 hPa | 0 mm | - | - | - |
| 1787410185 | 12.22° C | 37% | 1015.7 hPa | 0 mm | - | - | - |
| 1787409886 | 11.67° C | 37% | 1015.7 hPa | 0 mm | - | - | - |
| 1787409585 | 11.67° C | 36% | 1015.8 hPa | 0 mm | - | - | - |
| 1787409286 | 11.67° C | 38% | 1015.9 hPa | 0 mm | - | - | - |
| 1787408986 | 11.67° C | 41% | 1015.9 hPa | 0 mm | - | - | - |
| 1787408685 | 11.11° C | 40% | 1016 hPa | 0 mm | - | - | - |
| 1787408385 | 11.67° C | 42% | 1016 hPa | 0 mm | - | - | - |
| 1787408088 | 11.11° C | 44% | 1016 hPa | 0 mm | - | - | - |
| 1787407786 | 11.11° C | 45% | 1016.1 hPa | 0 mm | - | - | - |
| 1787407485 | 10.56° C | 48% | 1016.2 hPa | 0 mm | - | - | - |
| 1787407186 | 10.56° C | 48% | 1016.1 hPa | 0 mm | - | - | - |
* Rain latest hour (hover to see other rain measurements)
** Current wind speed in m/s (hover to see current wind gust speed)